Terug naar catalogus

HISPASAT 30W-6

ActiefCommunicatieGEO
NORAD 43228·PAYLOAD·🇪🇸 Spain

Gelanceerd Mar 6, 2018 vanaf Cape Canaveral Space Force Station

Loading…

TLE

VersSource: Space-Track

Epoch: Sep 14, 2026, 22:12 UTC

1 43228U 18023A   26257.92555410 -.00000223  00000-0  00000-0 0  9994
2 43228   0.0476  41.4926 0003401  97.6912 157.9095  1.00270348 31304

Volg HISPASAT 30W-6 in realtime met AllMySat

Download on the App Store